Home   Weather   Netanya   Past weeks

Flag for Israel Past Weather in Netanya, Israel — Yesterday and Last 2 Weeks

Now
61 °F

Clear.


Feels Like: 61 °F
Forecast: 62 / 68 °F
Wind: 3 mph from North

Location: Dov Airport

Current Time: Dec 6, 2016 at 11:54:14 pm

Latest Report: Dec 6, 2016 at 10:50 pm


Visibility: 10 mi

Pressure: 30.21 "Hg

Humidity: 59%

Dew Point: 46 °F

Location of NetanyaLocation

Past Weather in Netanya — Graph

°F

Netanya Temperature Yesterday

Maximum temperature yesterday: 68 °F (at 2:50 pm)
Minimum temperature yesterday: 54 °F (at 5:50 am)
Average temperature yesterday: 63 °F

High & Low Weather Summary for the Past Weeks

 TemperatureHumidityPressure
High82 °F (Nov 22, 12:50 pm)94% (Dec 1, 3:02 pm)30.30 "Hg (Dec 1, 3:02 pm)
Low52 °F (Nov 26, 6:50 am)5% (Nov 24, 1:50 pm)29.74 "Hg (Dec 1, 1:50 pm)
Average66 °F41%30.05 "Hg
* Reported Nov 21 10:50 pm — Dec 6 10:50 pm, Netanya, Weather by CustomWeather, © 2016

Note: Actual official high and low records may vary slightly from our data, if they occured in-between our weather recording intervals... More about our weather records

Advertising

Netanya Weather History for the Previous 24 Hours

Scroll right to see more
 ConditionsComfort  
Time TempWeatherWind HumidityBarometerVisibility
10:50 pm
Tue, Dec 6
61 °FClear.3 mph59%30.21 "Hg10 mi
9:50 pm61 °FClear.3 mph63%30.21 "Hg10 mi
8:50 pm61 °FClear.2 mph63%30.21 "Hg10 mi
7:50 pm63 °FClear.6 mph59%30.21 "Hg10 mi
6:50 pm64 °FClear.7 mph60%30.21 "Hg10 mi
5:50 pm66 °FClear.7 mph60%30.18 "Hg10 mi
4:50 pm66 °FClear.10 mph64%30.15 "Hg10 mi
3:50 pm70 °FSunny.10 mph53%30.15 "Hg10 mi
2:50 pm70 °FPassing clouds.9 mph50%30.15 "HgN/A
1:50 pm70 °FSunny.9 mph50%30.15 "Hg10 mi
12:50 pm68 °FSunny.8 mph53%30.15 "Hg10 mi
11:50 am68 °FPassing clouds.6 mph53%30.18 "HgN/A
10:50 am66 °FPassing clouds.6 mph56%30.21 "HgN/A
8:50 am63 °FPassing clouds.3 mph68%30.21 "HgN/A
7:50 am57 °FPassing clouds.2 mph82%30.21 "HgN/A
6:50 am54 °FPassing clouds.6 mph88%30.21 "HgN/A
5:50 am55 °FClear.5 mph88%30.18 "Hg10 mi
Weather by CustomWeather, © 2016

See weather overviewHow to use our weather pages